[[{"header":{"parameterUnit":"m.s-1","parameterCategory":1,"la1":30.2991,"la2":30.254,"lo1":-89.0895,"lo2":-89.0444,"dy":0.0017,"dx":0.0017,"nx":28,"ny":28,"refTime":"2025-02-09T03:00:00:Z","depth":0,"parameterNumber":2,"parameterNumberName":"U-component_of_WINDS"},"data":[0,0,0,0,0,0,0,0,0,0,0,0,0,0,0,0,0,0,0,0,0,0,0,0,0,0,0,0,0,0,0,0,0,0,0,0,0,0,0,0,0,0,0,0,0,0,0,0,0,0,0,0,0,0,0,0,0,0,-0.1056,-0.1056,0,-0.1039,-0.1039,-0.1039,-0.1058,-0.1059,-0.106,-0.106,-0.104,-0.1038,-0.1037,0,0,0,0,0,0,0,0,0,0,0,0,0,-0.1101,-0.11,-0.1056,-0.1056,-0.1055,-0.1039,-0.1039,-0.1038,-0.1058,-0.1059,-0.106,-0.1061,-0.104,-0.1039,-0.1037,0,0,0,0,0,0,0,0,0,0,0,0,0,-0.1083,-0.11,-0.1056,-0.1063,-0.1064,-0.1039,-0.1039,-0.1038,-0.1058,-0.1059,-0.106,-0.1061,-0.104,-0.1039,-0.1037,-0.1003,0,0,-0.1031,-0.103,0,0,0,0,0,0,0,0,-0.1084,-0.1081,-0.1062,-0.1063,-0.1063,-0.1052,-0.1047,-0.1026,-0.1058,-0.106,-0.106,-0.1062,-0.1043,-0.1041,-0.1035,-0.1002,-0.1001,-0.1031,-0.103,-0.1029,-0.1028,0,0,0,0,0,0,0,-0.1085,-0.1082,-0.1049,-0.1062,-0.1063,-0.1066,-0.1065,-0.1043,-0.1045,-0.106,-0.1061,-0.1059,-0.1043,-0.1037,-0.1034,-0.1001,-0.1031,-0.1029,-0.1028,-0.1027,-0.0937,-0.0936,0,0,0,0,0,0,-0.1086,-0.1083,-0.105,-0.1049,-0.1076,-0.1064,-0.1063,-0.1054,-0.1045,-0.1045,-0.1058,-0.106,-0.1039,-0.1037,-0.1034,-0.0992,-0.1029,-0.1027,-0.1026,-0.0939,-0.0937,-0.0936,0,0,0,0,0,0,-0.1087,-0.1083,-0.105,-0.1066,-0.1062,-0.1063,-0.1053,-0.1053,-0.1047,-0.1044,-0.1044,-0.1052,-0.104,-0.1036,-0.101,-0.0992,-0.1026,-0.1025,-0.094,-0.0938,-0.0936,-0.091,0,0,0,0,0,0,-0.1088,-0.1083,-0.1071,-0.1066,-0.1061,-0.1028,-0.1052,-0.1052,-0.1044,-0.1047,-0.1038,-0.1038,-0.1041,-0.1013,-0.1008,-0.099,-0.1023,-0.0942,-0.0939,-0.0937,-0.0912,-0.0907,-0.0903,0,0,0,0,0,-0.109,-0.1064,-0.107,-0.1066,-0.1047,-0.1027,-0.1024,-0.1029,-0.1043,-0.103,-0.1028,-0.1038,-0.0995,-0.101,-0.1005,-0.0986,-0.0943,-0.094,-0.0937,-0.0914,-0.0908,-0.0903,0,0,0,0,0,0,-0.1066,-0.1063,-0.107,-0.1043,-0.1035,-0.103,-0.1015,-0.1023,-0.1011,-0.1013,-0.1019,-0.1017,-0.0988,-0.0985,-0.1002,-0.0952,-0.0971,-0.0967,-0.0955,-0.0949,-0.0945,-0.0945,-0.1022,0,0,0,0,0,-0.1058,-0.1043,-0.1041,-0.1017,-0.1013,-0.1014,-0.1006,-0.101,-0.1002,-0.0999,-0.0995,-0.0986,-0.097,-0.096,-0.0945,-0.0912,-0.0909,-0.0896,-0.0891,-0.0888,-0.0884,-0.0864,-0.0857,-0.0926,-0.0926,-0.0926,0,0,-0.104,-0.1037,-0.1027,-0.1012,-0.1007,-0.099,-0.1011,-0.0993,-0.0981,-0.0996,-0.0971,-0.0968,-0.0958,-0.0927,-0.0914,-0.0923,-0.0864,-0.0884,-0.0881,-0.0879,-0.086,-0.0854,-0.0848,-0.0924,-0.0925,-0.0925,0,0,-0.1,-0.0997,-0.0975,-0.0969,-0.0961,-0.0962,-0.0957,-0.0951,-0.095,-0.0925,-0.0936,-0.092,-0.0894,-0.0885,-0.0878,-0.0833,-0.0841,-0.0828,-0.0803,-0.0784,-0.0779,-0.0774,-0.0756,-0.075,-0.0825,-0.0825,-0.0825,0,-0.0979,-0.0955,-0.0963,-0.0944,-0.0936,-0.095,-0.0927,-0.0921,-0.0908,-0.0901,-0.0913,-0.0878,-0.0873,-0.084,-0.0829,-0.0823,-0.0816,-0.0829,-0.0779,-0.0774,-0.077,-0.0753,-0.0747,-0.0823,-0.0823,-0.0823,-0.0824,0,-0.0929,-0.0913,-0.0896,-0.0884,-0.0874,-0.0853,-0.0856,-0.0845,-0.085,-0.085,-0.0823,-0.0817,-0.0801,-0.0794,-0.0798,-0.0761,-0.0767,-0.0779,-0.0798,-0.0762,-0.0746,-0.074,-0.0821,-0.0821,-0.0822,-0.0822,0,0,-0.0873,-0.0865,-0.0859,-0.0853,-0.0844,-0.0831,-0.081,-0.0795,-0.0785,-0.0776,-0.0757,-0.0734,-0.0744,-0.0736,-0.0739,-0.0723,-0.0686,-0.0736,-0.0736,-0.0726,-0.0642,-0.0633,-0.0625,-0.0692,-0.069,-0.0689,-0.0643,0,-0.0831,-0.0796,-0.0802,-0.0767,-0.0751,-0.0764,-0.0745,-0.0737,-0.0736,-0.0721,-0.0719,-0.0702,-0.0718,-0.0713,-0.0697,-0.0694,-0.0669,-0.0697,-0.0672,-0.0672,-0.0673,-0.0617,-0.0608,-0.0564,-0.0637,-0.0636,-0.0635,0,-0.0778,-0.0767,-0.0731,-0.0724,-0.0718,-0.0701,-0.0687,-0.0673,-0.0664,-0.0664,-0.0654,-0.066,-0.0638,-0.0658,-0.0626,-0.0645,-0.0636,-0.0632,-0.0631,-0.0627,-0.065,-0.0611,-0.055,-0.0543,-0.0626,-0.0626,-0.0627,0,-0.0739,-0.0715,-0.069,-0.0685,-0.0677,-0.0664,-0.066,-0.0652,-0.0642,-0.063,-0.0623,-0.0608,-0.0599,-0.0586,-0.0588,-0.0603,-0.0554,-0.0575,-0.0552,-0.0552,-0.054,-0.0541,-0.0475,-0.0536,-0.0536,-0.0537,-0.0537,0,-0.0691,-0.0668,-0.0672,-0.0657,-0.0631,-0.0637,-0.0611,-0.0608,-0.06,-0.0583,-0.0593,-0.0577,-0.0581,-0.0564,-0.0565,-0.0537,-0.0533,-0.0531,-0.0531,-0.053,-0.053,-0.0522,-0.0525,-0.0535,-0.0535,-0.0536,-0.0536,0,-0.0643,-0.0645,-0.0618,-0.0613,-0.0611,-0.0592,-0.0586,-0.0571,-0.057,-0.0548,-0.0544,-0.0542,-0.0523,-0.0523,-0.0501,-0.0502,-0.0467,-0.0472,-0.047,-0.0471,-0.0447,-0.0449,-0.0373,-0.0363,-0.0432,-0.0432,-0.0431,0,-0.0612,-0.0594,-0.0587,-0.0577,-0.0572,-0.0555,-0.0545,-0.055,-0.0539,-0.0526,-0.0512,-0.0494,-0.0479,-0.0447,-0.0443,-0.0426,-0.0429,-0.0404,-0.0426,-0.0424,-0.0427,-0.0427,-0.0425,-0.0399,-0.0398,-0.0397,-0.0397,0,-0.0555,-0.0557,-0.0543,-0.0529,-0.0517,-0.0506,-0.0496,-0.0486,-0.049,-0.0476,-0.0457,-0.0446,-0.0423,-0.0404,-0.0387,-0.0381,-0.0389,-0.039,-0.0383,-0.0381,-0.038,-0.0379,-0.0457,-0.0391,-0.0392,-0.0392,-0.0393,-0.0393,-0.0514,-0.0499,-0.0491,-0.0474,-0.0467,-0.0457,-0.0442,-0.0439,-0.0424,-0.0406,-0.0409,-0.0387,-0.0377,-0.0355,-0.0348,-0.0329,-0.0338,-0.0329,-0.0326,-0.0324,-0.032,-0.0384,-0.0326,-0.0326,-0.0327,-0.0327,-0.0327,0,-0.0457,-0.0452,-0.0437,-0.0423,-0.0409,-0.0419,-0.0408,-0.0395,-0.0376,-0.0366,-0.0352,-0.0328,-0.031,-0.0304,-0.0286,-0.0272,-0.0275,-0.0267,-0.0267,-0.0266,-0.0314,-0.0321,-0.0265,-0.0265,-0.0265,-0.0265,-0.0265,-0.0265,-0.0426,-0.04,-0.04,-0.037,-0.0366,-0.0345,-0.0337,-0.0327,-0.0319,-0.0293,-0.0278,-0.0275,-0.0266,-0.0247,-0.023,-0.0229,-0.0221,-0.0211,-0.0211,-0.0256,-0.0262,-0.0268,-0.0275,-0.0209,-0.0209,-0.0163,-0.0163,-0.0163]},{"header":{"parameterUnit":"m.s-1","parameterCategory":1,"la1":30.2991,"la2":30.254,"lo1":-89.0895,"lo2":-89.0444,"dy":0.0017,"dx":0.0017,"nx":28,"ny":28,"refTime":"2025-02-09T03:00:00:Z","depth":0,"parameterNumber":3,"parameterNumberName":"V-component_of_WINDS"},"data":[0,0,0,0,0,0,0,0,0,0,0,0,0,0,0,0,0,0,0,0,0,0,0,0,0,0,0,0,0,0,0,0,0,0,0,0,0,0,0,0,0,0,0,0,0,0,0,0,0,0,0,0,0,0,0,0,0,0,4.45,4.4502,0,4.4733,4.4736,4.4739,4.4794,4.4792,4.4791,4.4789,4.5027,4.5034,4.5042,0,0,0,0,0,0,0,0,0,0,0,0,0,4.4101,4.4108,4.4499,4.4502,4.4505,4.4733,4.4736,4.4739,4.4794,4.4792,4.479,4.4789,4.5024,4.5033,4.5043,0,0,0,0,0,0,0,0,0,0,0,0,0,4.4298,4.411,4.4499,4.456,4.4568,4.4732,4.4736,4.474,4.4795,4.4792,4.479,4.4788,4.5021,4.5032,4.5044,4.5163,0,0,4.5079,4.5085,0,0,0,0,0,0,0,0,4.4287,4.4313,4.4548,4.4556,4.4565,4.4732,4.4683,4.4882,4.4795,4.4709,4.4789,4.4787,4.493,4.4949,4.4998,4.5174,4.5184,4.5081,4.5088,4.5093,4.5096,0,0,0,0,0,0,0,4.4273,4.4303,4.4592,4.4552,4.4562,4.4576,4.4602,4.4721,4.483,4.4716,4.4721,4.4748,4.4935,4.4987,4.5004,4.5188,4.508,4.5091,4.5098,4.5102,4.5477,4.548,0,0,0,0,0,0,4.4249,4.4291,4.4584,4.4599,4.4418,4.4585,4.4614,4.4681,4.4829,4.4849,4.4749,4.4749,4.4968,4.4991,4.5013,4.5165,4.5093,4.5103,4.511,4.5474,4.5478,4.5481,0,0,0,0,0,0,4.424,4.4275,4.4575,4.4447,4.4486,4.4595,4.467,4.4687,4.4739,4.4854,4.4873,4.4783,4.4967,4.4996,4.5126,4.5174,4.5109,4.5119,4.5471,4.5476,4.548,4.5469,0,0,0,0,0,0,4.4229,4.4271,4.4317,4.4447,4.4493,4.4685,4.4673,4.4693,4.476,4.4762,4.4891,4.491,4.4968,4.5109,4.5138,4.5189,4.5128,4.5467,4.5473,4.5478,4.5466,4.5473,4.5478,0,0,0,0,0,4.4214,4.4304,4.4319,4.4354,4.4553,4.4687,4.4713,4.4779,4.4763,4.4811,4.4885,4.4906,4.5164,4.5122,4.5155,4.521,4.5465,4.5471,4.5478,4.5463,4.5471,4.5478,0,0,0,0,0,0,4.4175,4.4322,4.4341,4.4475,4.4568,4.4696,4.4758,4.4785,4.4884,4.4882,4.4958,4.4987,4.5113,4.5174,4.5124,4.5335,4.5314,4.5328,4.5291,4.53,4.5306,4.529,4.5138,0,0,0,0,0,4.4182,4.4279,4.4402,4.4509,4.4555,4.4648,4.4709,4.4752,4.4852,4.4891,4.4975,4.507,4.5174,4.524,4.5341,4.5474,4.5505,4.5529,4.5535,4.554,4.5552,4.563,4.5644,4.5503,4.5503,4.5503,0,0,4.4197,4.429,4.4346,4.4503,4.4581,4.4681,4.4681,4.4786,4.4861,4.4907,4.5036,4.5101,4.5213,4.5346,4.5409,4.5401,4.5597,4.5549,4.5552,4.5561,4.5639,4.5652,4.5664,4.5508,4.5507,4.5506,0,0,4.4277,4.4356,4.4455,4.4533,4.4651,4.4714,4.4737,4.4862,4.4908,4.5039,4.5076,4.5166,4.5341,4.5421,4.5484,4.5597,4.5621,4.5628,4.5662,4.5738,4.5749,4.5759,4.5802,4.5817,4.5638,4.5638,4.5638,0,4.4281,4.4434,4.4502,4.4607,4.4676,4.4724,4.4826,4.4898,4.5042,4.5089,4.5078,4.5302,4.538,4.5535,4.5563,4.5611,4.5642,4.5614,4.5742,4.5753,4.5763,4.5806,4.5821,4.5639,4.5639,4.5639,4.5639,0,4.4435,4.454,4.4605,4.4746,4.4822,4.4925,4.501,4.5079,4.5115,4.5179,4.5313,4.5409,4.5532,4.5571,4.5607,4.5732,4.5724,4.5726,4.5707,4.5776,4.5817,4.5833,4.5639,4.5639,4.5639,4.5639,0,0,4.4495,4.4675,4.4698,4.4764,4.4899,4.4982,4.5087,4.5209,4.5268,4.5366,4.5458,4.5607,4.5611,4.5683,4.5728,4.5794,4.5882,4.579,4.5793,4.5806,4.6029,4.6028,4.6045,4.5898,4.5901,4.5904,4.6021,0,4.4594,4.4785,4.4851,4.5009,4.5109,4.5157,4.5249,4.5342,4.5405,4.5499,4.5567,4.5673,4.5669,4.5714,4.5781,4.5857,4.5928,4.5849,4.5985,4.5989,4.5958,4.6066,4.6065,4.6171,4.6037,4.604,4.6042,0,4.4734,4.4837,4.5005,4.5131,4.5176,4.5257,4.5376,4.5465,4.5572,4.5613,4.5695,4.5736,4.585,4.5822,4.5981,4.5925,4.5985,4.6031,4.6037,4.6053,4.6021,4.6088,4.6206,4.6222,4.6067,4.6065,4.6063,0,4.4765,4.4945,4.5071,4.5125,4.5274,4.5331,4.5396,4.5501,4.5571,4.5675,4.5721,4.5836,4.5899,4.5987,4.6059,4.6032,4.6212,4.6189,4.6251,4.6249,4.6288,4.6285,4.6418,4.6322,4.6322,4.6321,4.6321,0,4.487,4.4971,4.5087,4.5164,4.5281,4.5356,4.5469,4.5537,4.5631,4.5723,4.577,4.5855,4.5943,4.604,4.6097,4.6222,4.6249,4.6286,4.6301,4.6284,4.6279,4.6325,4.632,4.6326,4.6325,4.6324,4.6323,0,4.4924,4.5006,4.5146,4.5277,4.5312,4.5392,4.5504,4.5582,4.5647,4.5763,4.5794,4.5897,4.6014,4.6094,4.6243,4.6282,4.6418,4.6429,4.6382,4.6389,4.6447,4.6441,4.6617,4.6645,4.6527,4.6528,4.6529,0,4.4987,4.5067,4.5207,4.5272,4.5338,4.5442,4.5515,4.5592,4.5666,4.5797,4.5859,4.5979,4.608,4.6265,4.6353,4.6468,4.6485,4.6539,4.6502,4.6484,4.6489,4.6485,4.6494,4.6544,4.6545,4.6546,4.6547,0,4.5089,4.5127,4.5229,4.5348,4.5434,4.553,4.5627,4.5678,4.5773,4.5853,4.5975,4.6053,4.6208,4.6328,4.6452,4.6519,4.655,4.6557,4.6578,4.6562,4.6533,4.6553,4.64,4.6553,4.6552,4.6552,4.6552,4.6551,4.5152,4.5227,4.5338,4.5452,4.5534,4.5624,4.5704,4.5781,4.5883,4.6016,4.6056,4.6182,4.6291,4.6461,4.653,4.6631,4.6627,4.6656,4.6664,4.6671,4.6672,4.6515,4.6654,4.6654,4.6654,4.6654,4.6653,0,4.526,4.5334,4.5438,4.5574,4.5664,4.5686,4.5795,4.587,4.5981,4.608,4.6179,4.632,4.6437,4.6535,4.6657,4.6719,4.6736,4.6749,4.6746,4.6761,4.6668,4.6639,4.6733,4.6733,4.6733,4.6733,4.6733,4.6733,4.5326,4.5455,4.5506,4.5676,4.575,4.5876,4.5937,4.6021,4.6101,4.6257,4.6355,4.6419,4.6518,4.6648,4.6757,4.6783,4.6827,4.6836,4.6866,4.6776,4.6767,4.6759,4.6733,4.6844,4.6845,4.6952,4.6952,4.6953]}]]